Back to catalog

DELTA 1 DEB

AliveSSO
NORAD 12181·DEBRIS·🇺🇸 United States

Launched Mar 5, 1978 from Vandenberg Space Force Base

Loading…

Next Passes (next 24 hours)

TLE

FreshSource: Space-Track

Epoch: Sep 14, 2026, 11:23 UTC

1 12181U 78026W   26257.47440496  .00000129  00000-0  68674-4 0  9993
2 12181  98.8482 269.1385 0098480  20.0150 340.4850 14.26754131369360

Track DELTA 1 DEB in real time with AllMySat

Download on the App Store